Location: Middle Street
(51.7167°N, 0.0333°E)
Time: 20:06:45
(UTC+00:00)

CZ-4C R/B - Pass Details

Date: 20 January 2021
Orbit: 617 x 1385 km, 63.4° (Epoch: 27 February)

Event Time Altitude Azimuth Distance (km) Brightness Sun altitude
Rises 17:07:01 0° 228° (SW) 3,078 6.9 -6.2°
Reaches altitude 10° 17:09:11 10° 230° (SW) 2,237 5.9 -6.5°
Maximum altitude 17:14:18 79° 317° (NW) 856 2.3 -7.2°
Drops below altitude 10° 17:20:36 10° 45° (NE) 2,732 4.3 -8.1°
Enters shadow 17:21:20 - 45° (NE) 3,009 4.5 -8.2°
